DECAYED

PEGASUS DEB, 24978 (Decayed)

Orbit data source: Space-Track

PEGASUS DEB, 24978 was space debris in LEO originally from a launch on Thu, 19 May 1994 UTC launched from the Air Force Western Test Range (AFWTR). Debris objects in space refer to the collection of defunct objects orbiting the Earth. Examples of debris include non-operational satellites, rocket bodies, and fragments generated from explosions, collisions, or faulty payload assembly.

Not visible in the next 10 days
Identifier
24978, 1994-029ACL
Orbit
Decayed
Country
Flag of USUS
Related business
Manufacturer
Unknown
Mission
Decayed spacecraft
Bus & Motor
Unknown
Mass
Unknown
Launch date (UTC)
1994-05-19 (32 years ago)
Launch vehicle
Unknown
Launch site
Air Force Western Test Range (AFWTR)
Object type
Payload
Rocket body
Debris
Shape & HBR
Unknown shape, 0.1 m
Radar Cross Section
Small (<0.1 m²)

Expand to show TLE details & history
Last TLE update: 1 year ago

TLE from 1 year ago
0 PEGASUS DEB
1 24978U 94029ACL 25100.03702345  .03510317  16487-1  66696-2 0  9998
2 24978  81.4001 319.2285 0028109 262.7507  97.0573 16.02876605492462
Epoch: 2025-04-10T00:53Z
TLE epoch observation values (Epoch: 2025-04-10T00:53:18.826Z)
Latitude
-0.00005°
Longitude
107.3849°
Altitude
271.968 km
Speed
7.743 km/s
True Right ascension
21h 16m 54s
True Declination
0° 00' 00"
Sunlit
Object was in daylight at epoch
Visualization orbit readout
Latitude
Unknown
Longitude
Unknown
Altitude
Unknown
Speed
Unknown
Apparent Right ascension
Unknown
Apparent Declination
Unknown
Sunlit
N/A
Visualization observer readout
Local Sidereal Time
13:07:45
Azimuth
Unknown
Elevation
Unknown
Doppler factor
Unknown
Orbital elements
Apogee altitude
282.039 km
Perigee altitude
244.702 km
Semi-major axis
6,641.507 km
Eccentricity
0.00281
Inclination
81.4001°
RAAN
319.2285°
Arg. of periapsis
262.7507°
True anomaly
97.37683°
Mean anomaly
97.0573°
Eccentric anomaly
97.21708°
Mean motion
4.00999 °/min
Orbital period
89.78 mins
BSTAR
0.0066696
Loading maneuver chart data...
Computing Atmospheric mass density...

Documentation

Showing up to 5 results
|